Precipitable_Water
0.73 0.69 0.69 0.70 0.74 0.76 0.79 0.83 0.78 0.75 0.73 0.72 0.75 0.76 0.74 0.72 0.70 0.66 0.61 0.61 0.57 0.56 0.59 0.64 0.64 0.65 0.68 0.51 0.38 0.43 0.44 0.50 0.50 0.42 0.38 0.41 0.43 0.41 0.31 0.30 0.29 0.23 0.25 0.24 0.25 0.23 0.22
0.71 0.67 0.67 0.70 0.74 0.74 0.81 0.80 0.76 0.74 0.73 0.73 0.76 0.77 0.75 0.71 0.69 0.65 0.62 0.61 0.56 0.58 0.64 0.66 0.64 0.77 0.60 0.38 0.49 0.45 0.45 0.50 0.49 0.48 0.45 0.46 0.43 0.42 0.34 0.33 0.25 0.25 0.23 0.20 0.22 0.21 0.17
0.67 0.65 0.67 0.71 0.74 0.75 0.81 0.77 0.74 0.72 0.73 0.74 0.75 0.76 0.73 0.70 0.66 0.63 0.60 0.58 0.60 0.63 0.66 0.66 0.69 0.76 0.55 0.40 0.49 0.44 0.48 0.46 0.49 0.49 0.45 0.43 0.42 0.37 0.32 0.27 0.27 0.22 0.15 0.10 0.12 0.18 0.14
0.66 0.65 0.67 0.72 0.76 0.79 0.79 0.76 0.73 0.72 0.74 0.74 0.72 0.73 0.71 0.68 0.63 0.60 0.59 0.62 0.65 0.67 0.67 0.66 0.71 0.66 0.40 0.50 0.46 0.44 0.42 0.39 0.43 0.48 0.43 0.41 0.41 0.35 0.30 0.27 0.22 0.15 0.19 0.17 0.25 0.27 0.26
0.64 0.64 0.67 0.73 0.77 0.79 0.78 0.73 0.74 0.74 0.75 0.73 0.70 0.71 0.67 0.64 0.61 0.62 0.65 0.66 0.66 0.64 0.62 0.67 0.58 0.53 0.33 0.48 0.31 0.36 0.37 0.34 0.39 0.40 0.39 0.37 0.40 0.33 0.28 0.19 0.19 0.22 0.17 0.22 0.24 0.32 0.30
0.64 0.65 0.69 0.72 0.78 0.78 0.77 0.73 0.76 0.75 0.74 0.70 0.70 0.69 0.61 0.59 0.63 0.67 0.65 0.65 0.66 0.63 0.61 0.61 0.60 0.39 0.37 0.29 0.27 0.29 0.33 0.33 0.33 0.32 0.27 0.29 0.29 0.24 0.24 0.21 0.18 0.22 0.23 0.23 0.25 0.30 0.30
0.65 0.67 0.70 0.71 0.76 0.81 0.75 0.75 0.75 0.75 0.72 0.68 0.69 0.68 0.61 0.68 0.68 0.65 0.62 0.57 0.42 0.35 0.40 0.32 0.39 0.37 0.32 0.34 0.30 0.25 0.28 0.29 0.29 0.24 0.17 0.28 0.27 0.25 0.27 0.31 0.31 0.29 0.27 0.24 0.29 0.35 0.30
0.66 0.69 0.69 0.72 0.77 0.80 0.75 0.75 0.75 0.73 0.69 0.65 0.66 0.67 0.66 0.67 0.67 0.66 0.64 0.59 0.58 0.61 0.35 0.44 0.42 0.38 0.37 0.34 0.24 0.25 0.33 0.30 0.30 0.30 0.37 0.32 0.27 0.34 0.34 0.32 0.31 0.32 0.28 0.28 0.32 0.32 0.30
0.68 0.70 0.70 0.72 0.77 0.78 0.76 0.73 0.74 0.71 0.66 0.63 0.64 0.66 0.68 0.69 0.70 0.71 0.65 0.66 0.80 0.72 0.40 0.35 0.36 0.33 0.38 0.38 0.27 0.29 0.39 0.38 0.33 0.30 0.29 0.26 0.28 0.32 0.35 0.33 0.28 0.29 0.28 0.28 0.29 0.30 0.30
0.69 0.69 0.68 0.73 0.76 0.76 0.75 0.72 0.72 0.69 0.66 0.65 0.64 0.69 0.67 0.71 0.62 0.70 0.62 0.79 0.80 0.73 0.26 0.25 0.25 0.30 0.37 0.37 0.25 0.32 0.38 0.38 0.34 0.29 0.30 0.30 0.34 0.32 0.27 0.23 0.28 0.21 0.36 0.33 0.29 0.24 0.20
0.69 0.67 0.68 0.73 0.75 0.75 0.74 0.72 0.70 0.68 0.67 0.64 0.67 0.74 0.71 0.74 0.71 0.68 0.79 0.84 0.73 0.60 0.12 0.23 0.28 0.35 0.34 0.32 0.25 0.22 0.36 0.40 0.30 0.30 0.32 0.28 0.31 0.32 0.27 0.27 0.27 0.26 0.31 0.26 0.23 0.20 0.21
0.70 0.67 0.68 0.72 0.76 0.75 0.74 0.70 0.67 0.67 0.67 0.63 0.68 0.71 0.72 0.74 0.83 0.83 0.86 0.67 0.54 0.32 0.14 0.23 0.25 0.22 0.25 0.31 0.30 0.24 0.31 0.43 0.43 0.32 0.33 0.34 0.39 0.32 0.29 0.32 0.32 0.33 0.29 0.31 0.31 0.26 0.18
0.69 0.66 0.68 0.72 0.75 0.75 0.74 0.69 0.64 0.65 0.65 0.65 0.68 0.72 0.72 0.85 0.70 0.85 0.70 0.46 0.32 0.25 0.28 0.19 0.19 0.23 0.25 0.22 0.24 0.24 0.26 0.27 0.29 0.23 0.24 0.31 0.30 0.32 0.36 0.30 0.33 0.30 0.26 0.21 0.21 0.21 0.22
0.69 0.65 0.68 0.72 0.74 0.75 0.73 0.68 0.63 0.63 0.63 0.67 0.70 0.73 0.83 0.82 0.94 0.75 0.54 0.34 0.24 0.25 0.25 0.25 0.27 0.29 0.26 0.31 0.32 0.33 0.28 0.28 0.36 0.38 0.30 0.27 0.26 0.30 0.33 0.36 0.30 0.28 0.26 0.23 0.18 0.23 0.29
0.68 0.67 0.68 0.72 0.74 0.75 0.72 0.65 0.63 0.61 0.61 0.66 0.71 0.69 0.71 0.66 0.79 0.62 0.38 0.30 0.27 0.27 0.28 0.25 0.31 0.28 0.26 0.32 0.33 0.33 0.32 0.28 0.36 0.41 0.30 0.32 0.27 0.31 0.28 0.36 0.38 0.27 0.20 0.28 0.21 0.25 0.19
0.68 0.69 0.70 0.72 0.74 0.76 0.70 0.65 0.63 0.59 0.61 0.64 0.57 0.56 0.50 0.68 0.69 0.45 0.41 0.35 0.36 0.34 0.31 0.28 0.22 0.30 0.27 0.24 0.30 0.31 0.32 0.33 0.31 0.40 0.43 0.37 0.19 0.28 0.34 0.36 0.32 0.24 0.29 0.18 0.18 0.11 0.13
0.71 0.71 0.71 0.71 0.75 0.76 0.70 0.67 0.62 0.59 0.61 0.65 0.57 0.35 0.51 0.71 0.52 0.32 0.36 0.39 0.36 0.36 0.35 0.26 0.28 0.31 0.35 0.29 0.32 0.31 0.30 0.34 0.37 0.35 0.39 0.38 0.23 0.27 0.35 0.30 0.24 0.26 0.22 0.23 0.22 0.20 0.13
0.71 0.74 0.70 0.72 0.76 0.76 0.70 0.70 0.63 0.60 0.63 0.62 0.51 0.25 0.66 0.62 0.27 0.30 0.38 0.47 0.39 0.34 0.38 0.36 0.38 0.39 0.37 0.38 0.36 0.35 0.33 0.34 0.42 0.37 0.25 0.36 0.26 0.22 0.22 0.29 0.30 0.28 0.26 0.24 0.16 0.18 0.23
0.74 0.73 0.71 0.73 0.75 0.76 0.72 0.72 0.65 0.61 0.64 0.56 0.38 0.53 0.79 0.57 0.19 0.21 0.43 0.43 0.39 0.34 0.34 0.34 0.36 0.43 0.45 0.40 0.35 0.40 0.40 0.46 0.40 0.34 0.27 0.32 0.22 0.16 0.22 0.30 0.30 0.26 0.27 0.27 0.26 0.25 0.19
0.77 0.74 0.72 0.73 0.75 0.75 0.73 0.74 0.66 0.61 0.65 0.62 0.49 0.41 0.53 0.47 0.38 0.28 0.38 0.36 0.35 0.39 0.35 0.35 0.39 0.45 0.41 0.39 0.42 0.38 0.36 0.39 0.30 0.34 0.37 0.36 0.23 0.18 0.13 0.17 0.22 0.20 0.22 0.27 0.26 0.21 0.22
0.78 0.76 0.73 0.73 0.75 0.74 0.74 0.74 0.66 0.62 0.63 0.66 0.63 0.43 0.44 0.18 0.23 0.42 0.48 0.41 0.35 0.30 0.36 0.37 0.33 0.38 0.38 0.34 0.37 0.35 0.38 0.33 0.27 0.31 0.33 0.31 0.17 0.21 0.22 0.24 0.24 0.22 0.21 0.23 0.22 0.24 0.21
0.80 0.77 0.74 0.73 0.74 0.75 0.74 0.75 0.67 0.62 0.65 0.70 0.60 0.48 0.46 0.26 0.32 0.43 0.48 0.40 0.33 0.34 0.35 0.32 0.30 0.39 0.43 0.36 0.36 0.31 0.34 0.30 0.22 0.31 0.29 0.31 0.18 0.18 0.16 0.24 0.23 0.19 0.20 0.21 0.22 0.24 0.26
0.81 0.78 0.76 0.74 0.75 0.75 0.74 0.74 0.68 0.64 0.75 0.69 0.78 0.73 0.37 0.28 0.36 0.39 0.43 0.41 0.39 0.42 0.40 0.40 0.40 0.41 0.41 0.45 0.50 0.50 0.49 0.45 0.37 0.31 0.28 0.22 0.18 0.16 0.13 0.23 0.20 0.15 0.22 0.22 0.26 0.30 0.29
0.83 0.78 0.77 0.75 0.75 0.76 0.75 0.75 0.70 0.75 0.78 0.97 0.93 0.79 0.47 0.38 0.44 0.39 0.47 0.45 0.44 0.45 0.39 0.45 0.48 0.44 0.54 0.63 0.58 0.52 0.48 0.47 0.42 0.39 0.38 0.23 0.23 0.21 0.15 0.19 0.10 0.25 0.30 0.30 0.29 0.33 0.36
0.82 0.80 0.79 0.77 0.76 0.75 0.77 0.78 0.72 0.82 0.94 0.96 0.92 0.80 0.53 0.41 0.46 0.47 0.49 0.48 0.49 0.52 0.47 0.45 0.49 0.57 0.63 0.52 0.41 0.35 0.33 0.31 0.33 0.38 0.36 0.32 0.25 0.19 0.14 0.14 0.16 0.21 0.29 0.28 0.26 0.29 0.41
0.81 0.81 0.80 0.78 0.75 0.74 0.76 0.81 0.78 0.81 0.89 0.82 0.81 0.89 0.60 0.43 0.44 0.56 0.47 0.49 0.42 0.42 0.44 0.49 0.60 0.68 0.58 0.46 0.34 0.23 0.17 0.19 0.20 0.27 0.41 0.36 0.32 0.21 0.19 0.13 0.10 0.21 0.33 0.39 0.36 0.20 0.43
0.82 0.82 0.81 0.78 0.75 0.73 0.75 0.78 0.82 0.81 0.83 0.75 0.71 0.88 0.66 0.47 0.56 0.58 0.49 0.47 0.55 0.48 0.44 0.52 0.55 0.55 0.58 0.38 0.28 0.23 0.22 0.28 0.19 0.18 0.20 0.24 0.25 0.18 0.19 0.16 0.18 0.28 0.37 0.43 0.22 0.20 0.42
0.85 0.82 0.81 0.79 0.76 0.72 0.72 0.76 0.80 0.80 0.83 0.76 0.70 0.86 0.71 0.55 0.63 0.68 0.64 0.55 0.54 0.51 0.42 0.53 0.50 0.51 0.44 0.30 0.25 0.24 0.24 0.26 0.24 0.27 0.22 0.19 0.19 0.19 0.23 0.19 0.15 0.33 0.37 0.28 0.31 0.43 0.48
0.88 0.84 0.81 0.81 0.78 0.74 0.70 0.70 0.74 0.78 0.83 0.81 0.62 0.85 0.82 0.59 0.65 0.79 0.77 0.78 0.69 0.63 0.56 0.58 0.43 0.42 0.42 0.33 0.33 0.33 0.26 0.32 0.26 0.19 0.34 0.22 0.24 0.21 0.24 0.22 0.33 0.40 0.40 0.47 0.51 0.48 0.52
Wind_Speed
25 25 24 24 24 23 23 23 23 23 22 21 20 17 15 14 13 12 12 12 12 11 10 10 8 8 8 7 8 10 13 15 13 14 14 14 14 12 12 8 8 11 7 5 5 6 6
26 25 24 23 23 23 22 22 21 21 20 19 16 16 15 13 12 12 12 11 11 11 11 10 10 9 9 8 10 10 14 13 12 14 12 13 12 10 11 12 11 8 7 6 8 8 6
26 24 23 23 23 21 20 19 19 18 17 15 14 13 12 12 12 12 11 12 11 12 11 10 11 10 8 10 10 11 13 11 12 12 11 11 10 7 8 9 12 10 4 7 9 7 7
26 24 22 22 21 19 18 17 16 15 14 13 11 11 11 11 12 12 12 13 13 11 11 11 11 9 8 9 11 12 12 12 11 11 10 9 6 8 9 10 8 7 8 9 6 7 5
26 24 22 21 20 18 17 16 14 13 11 9 8 8 11 13 13 14 14 13 12 11 11 13 11 9 7 8 13 13 12 12 9 11 10 8 7 10 8 8 7 6 9 7 4 7 4
27 24 22 20 18 17 16 13 12 10 8 7 7 9 12 15 16 15 14 13 13 12 13 14 10 8 9 10 13 14 11 11 11 11 8 9 8 8 8 8 8 6 6 8 9 7 5
27 24 22 19 17 15 14 12 10 8 6 6 9 12 16 17 17 16 16 16 14 14 15 14 12 10 9 11 11 13 12 10 11 11 11 8 7 9 9 7 6 4 2 8 9 7 4
27 24 21 18 16 14 12 10 8 7 6 8 12 15 18 19 19 19 18 15 15 14 11 11 11 11 11 12 12 12 14 12 12 12 9 5 8 7 5 4 3 4 5 6 6 2 3
28 24 22 18 16 15 12 10 9 8 8 12 16 18 20 21 21 18 17 15 14 12 12 11 12 12 11 11 12 13 12 10 9 7 7 9 7 6 5 3 3 3 7 5 5 2 4
29 25 22 20 18 15 13 11 11 10 12 16 19 21 23 23 19 18 16 14 14 13 12 10 10 11 10 11 9 10 10 9 5 11 9 6 4 5 4 3 4 5 7 6 5 5 7
30 26 23 21 19 17 15 14 13 13 16 19 22 23 24 24 18 18 15 13 13 12 10 11 10 11 10 8 10 9 8 6 6 7 6 6 5 4 3 4 4 6 5 5 6 6 6
31 27 25 23 21 19 17 16 15 17 20 22 23 24 25 21 18 17 13 13 14 10 9 10 11 11 9 7 7 8 8 6 6 6 5 5 4 3 4 3 4 5 4 3 4 4 5
31 28 26 24 22 20 19 18 18 21 23 24 24 25 24 20 18 15 14 14 10 10 11 10 10 10 8 7 7 7 7 5 5 6 4 4 2 1 2 2 1 1 2 3 3 4 7
32 29 27 26 23 22 21 20 22 25 26 25 25 26 22 20 18 16 15 13 9 8 9 9 10 8 7 6 4 6 5 5 3 5 7 5 1 2 1 3 2 2 3 3 4 4 5
33 30 28 27 24 23 22 22 25 27 28 27 27 24 22 21 18 17 15 10 10 8 9 9 7 7 5 6 7 6 5 5 5 5 7 7 4 3 4 3 3 1 3 2 2 3 3
33 31 29 27 25 24 23 24 27 29 29 29 27 24 23 22 19 17 14 11 8 6 5 5 7 7 5 9 7 6 6 4 6 5 7 6 6 4 4 5 5 5 2 3 4 1 3
33 31 30 27 26 25 24 26 28 30 31 30 26 23 24 22 19 17 14 11 8 5 5 5 5 5 7 8 8 5 5 6 5 5 5 6 6 4 4 3 2 3 3 4 3 2 1
34 31 30 27 26 25 25 27 29 32 32 30 27 23 24 23 20 17 15 11 8 6 3 2 3 3 7 7 5 6 8 6 4 5 6 6 7 5 4 2 1 1 2 3 3 4 3
34 32 30 28 26 25 26 27 30 33 33 30 27 23 23 23 21 18 13 9 8 5 5 4 3 4 6 7 6 7 8 6 5 7 8 6 4 3 0 1 2 1 2 2 3 4 4
34 32 30 28 26 25 26 28 30 34 34 30 26 22 22 22 20 20 14 10 8 5 4 4 5 5 5 5 5 8 8 6 5 7 6 6 4 4 5 3 3 3 5 4 4 5 6
34 33 29 28 26 25 27 28 31 34 35 30 25 23 24 23 21 19 15 12 9 7 5 4 4 7 7 6 6 8 7 7 6 7 7 5 5 4 3 3 5 6 5 7 7 9 8
35 33 29 28 26 25 26 28 31 34 35 29 24 23 22 20 23 20 16 14 12 10 7 7 5 5 7 7 9 11 9 9 9 9 7 6 6 6 6 6 7 8 10 10 11 11 12
35 32 30 28 26 24 26 27 30 34 34 26 23 21 23 22 21 18 17 14 15 11 7 7 7 6 5 7 8 8 8 8 9 10 8 7 7 6 9 8 10 9 9 10 10 11 12
35 32 30 27 25 24 25 27 29 33 32 25 22 21 21 22 20 20 16 14 13 12 9 7 6 6 8 9 8 6 4 5 6 7 9 9 8 8 9 9 9 11 12 11 8 12 10
35 32 30 27 25 24 25 26 28 30 29 25 21 21 21 20 21 18 15 15 11 9 8 8 8 9 11 8 8 8 10 9 10 9 10 10 10 9 10 11 14 15 12 11 12 14 15
34 32 30 27 25 24 24 24 25 27 27 25 21 20 20 20 20 18 17 18 15 12 9 9 8 9 8 9 9 11 12 13 12 12 11 11 11 11 12 12 14 15 13 12 13 19 15
34 32 29 27 24 23 23 23 23 23 23 24 22 21 20 19 19 19 19 19 16 13 13 13 12 11 11 11 11 12 14 13 14 14 14 13 14 14 14 16 19 18 17 15 14 20 17
34 31 29 27 24 22 22 21 22 21 21 22 21 20 20 18 18 19 19 19 17 16 15 16 12 13 13 12 12 14 14 16 14 16 16 16 15 17 15 16 21 16 15 18 21 22 22
33 31 28 26 24 22 21 20 20 20 19 21 20 19 18 18 19 18 17 17 18 18 16 16 16 15 15 13 15 14 16 16 16 18 18 18 20 18 19 19 21 22 23 24 24 24 25
Wind_Direction
264 271 275 278 282 284 285 286 286 287 289 287 282 276 270 254 249 242 232 235 226 218 210 202 201 188 178 175 179 160 157 156 159 164 168 167 173 178 180 183 187 166 174 175 174 173 194
262 268 271 276 279 282 283 284 285 287 288 285 277 275 257 245 239 227 223 218 207 202 195 190 184 177 174 173 162 158 160 159 163 169 173 176 178 191 210 206 181 189 176 205 203 187 178
259 264 268 274 278 278 283 282 285 286 287 281 275 266 244 232 218 210 209 199 191 184 184 186 181 181 183 187 168 165 167 168 165 164 161 160 172 186 169 156 164 168 162 139 153 167 180
254 260 265 271 275 274 279 280 282 285 282 278 270 250 228 212 199 194 186 180 177 179 182 180 178 177 184 179 179 173 165 162 160 167 162 159 157 164 157 158 156 158 149 149 171 155 166
250 255 260 266 271 271 275 276 277 281 277 271 252 228 204 190 184 174 170 169 171 174 171 168 160 161 175 165 169 170 165 166 166 164 168 165 151 151 143 152 153 147 172 184 181 187 161
246 250 255 259 266 266 266 267 271 270 262 256 218 192 176 171 164 163 162 160 155 153 152 154 156 149 159 153 162 167 163 168 167 166 160 158 144 146 152 148 164 186 207 219 205 199 204
240 245 249 252 258 258 255 258 262 248 242 213 186 172 165 165 159 156 151 147 143 140 147 147 142 138 137 145 146 153 159 158 162 159 148 149 143 158 163 167 183 199 231 182 175 183 183
235 238 241 244 246 245 244 243 239 225 212 189 174 165 160 156 154 150 146 143 140 138 142 156 152 144 136 133 137 148 145 143 146 156 158 154 163 178 191 173 166 172 113 121 135 148 172
229 232 233 235 235 233 230 227 216 204 191 171 166 162 158 155 151 149 147 145 141 134 137 136 144 143 136 134 139 145 147 149 164 167 168 164 180 183 166 170 163 182 159 162 173 165 129
223 225 228 228 224 222 217 212 201 192 177 167 164 160 158 154 153 151 151 145 144 138 131 147 140 147 136 139 141 156 154 155 142 154 149 148 169 158 160 165 184 179 194 199 209 209 200
218 220 222 219 216 214 209 202 195 184 173 168 163 160 160 157 154 154 150 150 146 138 126 150 143 149 144 138 144 160 162 158 162 169 163 190 160 156 172 202 195 206 221 224 234 224 227
213 215 214 212 209 207 203 197 191 181 173 167 165 164 162 163 160 158 154 150 143 128 145 150 150 154 147 147 153 157 162 153 152 148 139 154 176 187 216 222 218 231 233 245 244 237 244
208 209 208 206 204 202 198 194 189 180 173 170 169 167 165 165 163 161 154 149 136 139 152 154 156 157 160 162 160 154 155 151 167 160 162 142 143 196 166 182 227 8 219 248 266 262 232
204 203 203 201 201 198 195 193 186 180 176 173 171 168 171 168 166 163 157 149 149 155 161 163 160 159 166 168 180 166 171 176 179 168 166 162 151 133 127 140 154 86 124 173 199 217 241
198 199 197 197 197 195 193 191 185 181 178 176 173 173 172 170 167 164 159 157 167 163 156 152 157 166 176 183 168 161 156 169 168 163 165 156 153 147 130 125 134 91 79 139 116 298 275
194 194 194 195 194 193 191 189 185 182 180 178 177 176 178 175 171 168 164 175 167 157 161 161 173 183 186 191 173 171 178 178 177 154 169 165 138 144 119 101 75 101 90 29 2 340 305
191 192 191 192 191 190 189 187 184 182 180 179 178 177 181 179 177 174 174 181 178 162 151 158 181 197 186 182 176 177 174 169 157 176 150 154 146 167 127 117 103 38 33 37 43 19 303
188 187 188 189 188 188 187 185 184 182 180 179 178 179 181 180 178 181 182 185 187 181 178 158 159 153 160 166 164 169 167 166 180 173 161 154 145 144 153 167 125 60 35 27 18 328 347
185 185 186 187 185 186 185 184 183 182 180 179 179 181 181 182 182 187 193 195 186 196 207 190 178 166 165 168 159 168 168 176 163 161 163 164 163 145 307 259 330 32 346 359 3 348 312
183 183 184 184 183 184 184 183 183 182 180 179 181 182 184 186 189 186 194 193 188 188 194 185 183 170 175 177 177 174 177 180 179 177 179 180 172 185 197 219 253 293 319 312 321 325 307
181 181 182 181 181 182 183 182 182 182 182 181 185 189 188 192 194 192 196 201 201 202 206 196 217 207 195 190 191 190 191 190 196 195 193 198 203 230 240 283 282 288 303 307 295 299 300
180 179 179 178 179 180 181 181 181 181 181 184 187 190 192 194 190 198 198 206 203 211 208 224 218 207 194 197 202 203 193 204 208 206 211 234 227 247 255 289 303 295 298 294 293 296 299
177 177 177 176 177 177 178 179 180 181 182 187 193 195 191 196 192 197 208 208 212 200 221 221 192 193 188 211 196 192 204 203 207 210 221 234 230 253 264 285 296 300 281 295 307 314 301
175 175 175 175 175 175 176 178 180 183 186 189 189 191 192 197 198 204 209 210 206 213 210 213 210 207 205 191 195 204 209 208 216 234 231 232 246 259 262 284 286 279 297 292 304 310 313
174 174 174 174 174 174 175 177 180 183 188 188 194 194 196 200 205 205 204 202 200 206 218 223 237 223 199 218 228 239 250 251 248 247 251 245 247 262 263 266 284 289 280 284 294 300 300
174 174 174 174 174 175 176 178 181 186 190 195 198 197 198 199 209 209 207 207 210 217 231 227 220 220 226 236 239 237 241 241 243 244 250 255 256 258 265 271 273 278 284 289 300 303 287
174 174 174 175 175 175 177 180 183 187 192 197 200 201 202 204 213 211 215 214 216 225 231 231 232 237 242 245 247 246 250 244 243 242 249 260 266 260 268 274 283 276 279 289 301 298 294
175 175 175 175 175 177 178 180 185 189 193 197 199 204 206 210 215 218 220 219 223 230 233 234 238 248 248 249 249 251 253 252 255 253 253 252 257 265 270 278 283 269 278 281 292 298 296
176 177 177 178 178 179 180 181 185 189 193 196 199 204 207 211 214 217 219 225 233 232 234 237 240 246 244 251 254 256 260 260 258 261 259 263 259 265 261 271 279 276 282 288 290 294 296